KO5MO-4 Weather Reports


Display with metric or nautical units.
time (UTC)temp
F
wind
direction
speed
MPH
gust
MPH
rain 1hr
in
rain 24hr
in
rain mn
in
humidity
%
barometer
mb
20260502130334 64 45 1.0 2.0 0.00 0.00 0.00 38 1009.7
20260502122334 62 315 0.0 0.0 0.00 0.00 0.00 38 1009.1
20260502120334 62 225 0.0 0.0 0.00 0.00 0.00 38 1009.0
20260502115334 63 180 0.0 0.0 0.00 0.00 0.00 37 1009.1
20260502114834 63 180 0.0 0.0 0.00 0.00 0.00 37 1009.0
20260502113834 64 180 0.0 0.0 0.00 0.00 0.00 36 1009.0
20260502113334 64 180 0.0 0.0 0.00 0.00 0.00 35 1008.9
20260502112834 64 180 0.0 0.0 0.00 0.00 0.00 34 1008.8
20260502112334 65 180 0.0 0.0 0.00 0.00 0.00 35 1008.8
20260502111834 65 180 0.0 0.0 0.00 0.00 0.00 35 1008.8
20260502111334 66 270 0.0 0.0 0.00 0.00 0.00 33 1008.8
20260502110834 67 270 0.0 0.0 0.00 0.00 0.00 33 1008.9
20260502110334 67 225 0.0 0.0 0.00 0.00 0.00 31 1008.8
20260502105834 68 270 0.0 0.0 0.00 0.00 0.00 30 1008.8
20260502104334 67 315 1.0 1.0 0.00 0.00 0.00 31 1008.6
20260502101834 68 225 0.0 0.0 0.00 0.00 0.00 29 1008.5
20260502100334 69 315 1.0 1.0 0.00 0.00 0.00 29 1008.4
20260502091334 69 270 0.0 0.0 0.00 0.00 0.00 30 1008.2
20260502090833 69 270 0.0 0.0 0.00 0.00 0.00 30 1008.2
20260502070333 69 270 0.0 0.0 0.00 0.00 0.00 30 1007.5
20260502063833 69 225 0.0 0.0 0.00 0.00 0.00 29 1007.5
20260502061833 71 225 0.0 0.0 0.00 0.00 0.00 27 1007.4
20260502054333 71 180 0.0 0.0 0.00 0.00 0.00 27 1007.1
20260502043833 76 135 0.0 0.0 0.00 0.00 0.00 22 1006.8
20260502041833 77 180 0.0 0.0 0.00 0.00 0.00 21 1006.7
20260502040833 77 180 0.0 0.0 0.00 0.00 0.00 21 1006.5
20260502032333 80 225 0.0 0.0 0.00 0.00 0.00 21 1006.2
20260502031833 81 225 0.0 1.0 0.00 0.00 0.00 21 1006.0
20260502030833 81 180 0.0 0.0 0.00 0.00 0.00 20 1006.0
20260502025833 83 225 1.0 1.0 0.00 0.00 0.00 19 1005.9
20260502025333 83 225 2.0 3.0 0.00 0.00 0.00 19 1005.8
20260502024833 84 225 2.0 1.0 0.00 0.00 0.00 19 1005.8
20260502024333 84 225 2.0 3.0 0.00 0.00 0.00 19 1005.7
20260502023333 84 225 5.0 4.0 0.00 0.00 0.00 18 1005.6
20260502022833 85 225 4.0 4.0 0.00 0.00 0.00 18 1005.5
20260502021833 85 225 4.0 5.0 0.00 0.00 0.00 18 1005.5
20260502020333 86 225 4.0 4.0 0.00 0.00 0.00 18 1005.3
20260502015833 87 225 4.0 4.0 0.00 0.00 0.00 18 1005.3
20260502015333 87 180 4.0 5.0 0.00 0.00 0.00 18 1005.2
20260502014333 88 270 4.0 3.0 0.00 0.00 0.00 18 1005.3
20260502013833 89 225 3.0 3.0 0.00 0.00 0.00 17 1005.2
20260502013333 90 225 4.0 4.0 0.00 0.00 0.00 17 1005.3
20260502012833 90 270 6.0 6.0 0.00 0.00 0.00 17 1005.3
20260502012333 91 180 2.0 2.0 0.00 0.00 0.00 17 1005.3
20260502011333 91 270 1.0 3.0 0.00 0.00 0.00 17 1005.3
20260502005833 92 270 3.0 5.0 0.00 0.00 0.00 17 1005.3
20260502005333 92 270 4.0 4.0 0.00 0.00 0.00 17 1005.4
20260502004833 93 270 5.0 5.0 0.00 0.00 0.00 17 1005.4
20260502003833 91 270 2.0 3.0 0.00 0.00 0.00 18 1005.4
20260502003333 91 270 4.0 3.0 0.00 0.00 0.00 18 1005.4
20260502002833 93 270 5.0 6.0 0.00 0.00 0.00 18 1005.4
20260502002333 92 270 3.0 5.0 0.00 0.00 0.00 18 1005.4
20260502001833 93 225 6.0 6.0 0.00 0.00 0.00 18 1005.4
20260502001333 93 225 5.0 4.0 0.00 0.00 0.00 18 1005.4
20260502000333 93 270 7.0 6.0 0.00 0.00 0.00 17 1005.5
20260501235833 93 225 5.0 5.0 0.00 0.00 0.00 17 1005.5
20260501235333 94 315 5.0 5.0 0.00 0.00 0.00 17 1005.6
20260501234833 95 225 7.0 5.0 0.00 0.00 0.00 17 1005.6
20260501234333 93 225 2.0 1.0 0.00 0.00 0.00 17 1005.6
20260501233833 93 270 3.0 4.0 0.00 0.00 0.00 18 1005.6
20260501232833 92 315 4.0 4.0 0.00 0.00 0.00 17 1005.7
20260501232333 93 270 10.0 8.0 0.00 0.00 0.00 17 1005.6
20260501231833 93 225 7.0 8.0 0.00 0.00 0.00 17 1005.6
20260501231333 91 270 3.0 3.0 0.00 0.00 0.00 18 1005.7
20260501230333 93 270 4.0 3.0 0.00 0.00 0.00 18 1005.8
20260501225833 93 270 6.0 4.0 0.00 0.00 0.00 18 1005.8
20260501223833 92 270 4.0 2.0 0.00 0.00 0.00 17 1006.0
20260501222333 91 225 8.0 4.0 0.00 0.00 0.00 17 1006.3
20260501221333 91 180 6.0 6.0 0.00 0.00 0.00 18 1006.4
20260501220833 91 315 4.0 2.0 0.00 0.00 0.00 19 1006.4
20260501215833 91 225 7.0 7.0 0.00 0.00 0.00 19 1006.7
20260501215333 91 270 8.0 8.0 0.00 0.00 0.00 19 1006.7
20260501214333 92 270 7.0 7.0 0.00 0.00 0.00 19 1006.8
20260501213833 93 270 6.0 6.0 0.00 0.00 0.00 19 1006.9
20260501212333 92 315 3.0 2.0 0.00 0.00 0.00 19 1007.2
20260501211833 93 225 7.0 6.0 0.00 0.00 0.00 19 1007.2
20260501210833 92 225 5.0 4.0 0.00 0.00 0.00 19 1007.3
20260501205833 90 270 2.0 3.0 0.00 0.00 0.00 19 1007.5
20260501203833 93 315 3.0 3.0 0.00 0.00 0.00 19 1007.6
20260501202833 89 135 0.0 2.0 0.00 0.00 0.00 21 1007.8
20260501200833 90 90 2.0 3.0 0.00 0.00 0.00 20 1007.9
20260501195333 90 270 1.0 1.0 0.00 0.00 0.00 21 1008.0
20260501192833 89 180 4.0 3.0 0.00 0.00 0.00 21 1008.4
20260501192333 93 225 5.0 5.0 0.00 0.00 0.00 20 1008.4
20260501190833 92 225 3.0 4.0 0.00 0.00 0.00 20 1008.7
20260501190333 86 270 3.0 2.0 0.00 0.00 0.00 23 1008.7
20260501185833 87 180 4.0 4.0 0.00 0.00 0.00 23 1008.8
20260501185333 86 270 4.0 3.0 0.00 0.00 0.00 24 1008.9
20260501184333 88 0 3.0 3.0 0.00 0.00 0.00 23 1008.9
20260501182833 87 270 2.0 4.0 0.00 0.00 0.00 24 1009.2
20260501181833 86 270 4.0 3.0 0.00 0.00 0.00 24 1009.4
20260501175833 87 270 4.0 1.0 0.00 0.00 0.00 24 1009.6
20260501175333 87 315 2.0 2.0 0.00 0.00 0.00 24 1009.6
20260501173833 86 315 9.0 7.0 0.00 0.00 0.00 25 1009.7
20260501173333 85 180 4.0 4.0 0.00 0.00 0.00 26 1009.7
20260501172333 84 270 4.0 7.0 0.00 0.00 0.00 27 1009.8
20260501171833 86 270 6.0 6.0 0.00 0.00 0.00 25 1009.8
20260501170333 84 270 4.0 3.0 0.00 0.00 0.00 28 1009.9
20260501165833 83 180 1.0 2.0 0.00 0.00 0.00 28 1009.9
20260501165333 82 270 1.0 1.0 0.00 0.00 0.00 28 1009.8
20260501164833 81 135 2.0 1.0 0.00 0.00 0.00 29 1009.9
20260501163833 82 270 4.0 4.0 0.00 0.00 0.00 29 1009.8
20260501162833 82 225 3.0 3.0 0.00 0.00 0.00 29 1009.8
20260501161833 80 135 3.0 2.0 0.00 0.00 0.00 30 1009.8
20260501155333 82 270 4.0 5.0 0.00 0.00 0.00 29 1009.6
20260501151833 78 135 4.0 3.0 0.00 0.00 0.00 33 1009.4
20260501151333 78 180 2.0 2.0 0.00 0.00 0.00 33 1009.4
20260501150833 78 0 3.0 3.0 0.00 0.00 0.00 33 1009.3
20260501150333 77 135 2.0 1.0 0.00 0.00 0.00 33 1009.2
20260501145833 77 90 2.0 3.0 0.00 0.00 0.00 34 1009.2
20260501143833 78 0 1.0 1.0 0.00 0.00 0.00 33 1009.1
20260501143333 80 270 1.0 1.0 0.00 0.00 0.00 31 1009.0
20260501142833 80 180 2.0 2.0 0.00 0.00 0.00 32 1009.0